Weather History for Sidney, NE

Change the Weather History Date:

Monday, January 14, 2013

  Actual Average Record
Temperature  
Mean Temperature 5 °F 29 °F  
Max Temperature 17 °F 42 °F 66 °F (2006)
Min Temperature -8 °F 16 °F -16 °F (1972)
Degree Days  
Heating Degree Days 60 36  
Month to date heating degree days 598 504  
Since 1 July heating degree days 3154 3051  
Moisture  
Dew Point -1 °F    
Average Humidity 74    
Maximum Humidity 87    
Minimum Humidity 61    
Precipitation  
Precipitation T in 0.00 in 0.47 in (1960)
Month to date precipitation T 0.09  
Year to date precipitation T 0.09  
Sea Level Pressure  
Sea Level Pressure 30.33 in    
Wind  
Wind Speed 7 mph (WSW)    
Max Wind Speed 13 mph    
Max Gust Speed 15 mph    
Visibility 8 miles    
Events Snow    
T = Trace of Precipitation, MM = Missing Value Source: NWS Daily Summary

Daily Weather History Graph

Daily Weather History Graph

Search for Another Location

Airport:

Trip Planner

Search our weather history database for the weather conditions in past years. The results will help you decide how hot, cold, wet, or windy it might be!

Date:

Astronomy

Jan. 14, 2013 Rise Set
Actual Time 7:15 AM MST 4:47 PM MST
Civil Twilight 6:44 AM MST 5:17 PM MST
Nautical Twilight 6:10 AM MST 5:51 PM MST
Astronomical Twilight 5:37 AM MST 6:24 PM MST
Moon 8:47 AM MST (1/14) 8:37 PM MST (1/14)
Length of Visible Light 10h 32m
Length of Day
9h 32m
Waxing Crescent, 12% of the Moon is Illuminated
Jan 14
Waxing Crescent
Jan 18
First Quarter
Jan 26
Full
Feb 3
Last Quarter
Feb 10
New

Hourly Weather History & Observations

Time (MST) Temp. Windchill Dew Point Humidity Pressure Visibility Wind Dir Wind Speed Gust Speed Precip Events Conditions
12:53 AM -5.1 °F -23.5 °F -11.0 °F 76% 30.40 in 10.0 mi WNW 11.5 mph - N/A   Clear
1:53 AM -5.1 °F -17.6 °F -11.0 °F 76% 30.41 in 10.0 mi WNW 5.8 mph - N/A   Mostly Cloudy
2:53 AM -2.0 °F -12.2 °F -7.1 °F 79% 30.39 in 10.0 mi West 4.6 mph - N/A   Overcast
3:53 AM 1.0 °F -10.3 °F -5.1 °F 75% 30.38 in 10.0 mi NW 5.8 mph - N/A   Overcast
4:53 AM 3.0 °F -6.4 °F -2.9 °F 76% 30.39 in 10.0 mi West 4.6 mph - N/A   Overcast
5:53 AM -0.0 °F -15.3 °F -5.1 °F 79% 30.44 in 10.0 mi NW 9.2 mph - N/A   Overcast
6:23 AM 3.2 °F -10.3 °F -2.2 °F 78% 30.17 in 2.0 mi WNW 8.1 mph - 0.00 in Snow Light Snow
6:48 AM 1.4 °F -9.9 °F -2.2 °F 85% 30.17 in 4.0 mi WNW 5.8 mph - 0.00 in Snow Light Snow
6:53 AM 1.9 °F -7.6 °F -2.9 °F 80% 30.45 in 5.0 mi West 4.6 mph - 0.00 in Snow Light Snow
7:53 AM 3.9 °F -5.3 °F -2.0 °F 76% 30.47 in 10.0 mi West 4.6 mph - 0.00 in   Overcast
8:51 AM 8.6 °F -1.3 °F 3.2 °F 79% 30.20 in 1.8 mi SW 5.8 mph - 0.00 in Snow Light Snow
8:53 AM 8.1 °F -2.0 °F 3.0 °F 80% 30.48 in 1.5 mi WSW 5.8 mph - 0.00 in Snow Light Snow
9:04 AM 8.6 °F -1.3 °F 3.2 °F 79% 30.19 in 1.0 mi WSW 5.8 mph - 0.00 in Snow Light Snow
9:17 AM 10.4 °F -1.5 °F 6.8 °F 85% 30.19 in 1.8 mi SW 8.1 mph - 0.00 in Snow Light Snow
9:25 AM 10.4 °F -1.5 °F 6.8 °F 85% 30.19 in 2.5 mi SW 8.1 mph - 0.00 in Snow Light Snow
9:29 AM 10.4 °F -1.5 °F 6.8 °F 85% 30.18 in 3.0 mi SW 8.1 mph - 0.00 in   Haze
9:53 AM 12.0 °F -2.0 °F 6.1 °F 77% 30.45 in 4.0 mi SSW 11.5 mph - 0.00 in   Haze
10:53 AM 14.0 °F 0.5 °F 6.1 °F 71% 30.43 in 10.0 mi SW 11.5 mph - N/A   Mostly Cloudy
12:53 PM 16.0 °F 7.4 °F 8.1 °F 71% 30.34 in 10.0 mi WSW 5.8 mph - N/A   Overcast
1:02 PM 17.6 °F 8.2 °F 6.8 °F 63% 30.09 in 10.0 mi WSW 6.9 mph - N/A   Overcast
1:53 PM 16.0 °F 5.3 °F 7.0 °F 68% 30.34 in 10.0 mi WSW 8.1 mph - N/A   Overcast
2:14 PM 15.8 °F 6.1 °F 6.8 °F 68% 30.09 in 10.0 mi WSW 6.9 mph - N/A   Scattered Clouds
2:53 PM 16.0 °F 7.4 °F 6.1 °F 65% 30.34 in 10.0 mi WSW 5.8 mph - N/A   Partly Cloudy
3:53 PM 15.1 °F 6.4 °F 5.0 °F 64% 30.34 in 10.0 mi WSW 5.8 mph - N/A   Clear
4:53 PM 5.0 °F -6.9 °F -0.9 °F 76% 30.38 in 10.0 mi WSW 6.9 mph - N/A   Clear
5:53 PM -2.0 °F -18.7 °F -6.0 °F 83% 30.42 in 10.0 mi SW 10.4 mph - N/A   Clear
6:53 PM -2.9 °F -19.8 °F -7.1 °F 82% 30.42 in 10.0 mi WSW 10.4 mph - N/A   Clear
7:53 PM -2.9 °F -18.8 °F -8.0 °F 79% 30.40 in 10.0 mi West 9.2 mph - N/A   Clear
8:53 PM -2.9 °F -15.0 °F -7.1 °F 82% 30.38 in 10.0 mi WSW 5.8 mph - N/A   Clear
9:53 PM -4.0 °F -17.8 °F -8.0 °F 83% 30.36 in 10.0 mi West 6.9 mph - N/A   Clear
10:53 PM -5.1 °F -19.1 °F -9.0 °F 83% 30.35 in 10.0 mi West 6.9 mph - N/A   Clear
11:53 PM -4.0 °F -19.0 °F -9.0 °F 79% 30.33 in 10.0 mi WNW 8.1 mph - N/A   Clear